Location: Cold Norton
(51.6667°N, 0.6667°E)
Time: 17:56:59
(UTC+00:00)

Okean 2 Rocket - Pass Details

Date: 18 November 2025
Orbit: 611 x 635 km, 82.5° (Epoch: 10 December)

Event Time Altitude Azimuth Distance (km) Brightness Sun altitude
Rises 17:12:14 0° 148° (SSE) 2,886 6.4 -10.6°
Reaches altitude 10° 17:14:55 10° 132° (SE) 1,981 5.4 -11.0°
Maximum altitude 17:18:05 20° 85° (E) 1,446 4.3 -11.4°
Enters shadow 17:20:02 15° 53° (NE) 1,672 4.7 -11.7°
